TimeMST,TemperatureF,Dew PointF,Humidity,Sea Level PressureIn,VisibilityMPH,Wind Direction,Wind SpeedMPH,Gust SpeedMPH,PrecipitationIn,Events,Conditions,WindDirDegrees,DateUTC
12:53 AM,27.0,18.0,69,30.04,10.0,North,4.6,-,N/A,,Overcast,360,2012-11-29 07:53:00
1:53 AM,25.0,18.0,75,30.04,10.0,Variable,3.5,-,N/A,,Overcast,0,2012-11-29 08:53:00
2:53 AM,25.0,18.0,75,30.06,10.0,North,4.6,-,N/A,,Overcast,10,2012-11-29 09:53:00
3:53 AM,25.0,17.1,72,30.05,10.0,SE,3.5,-,N/A,,Mostly Cloudy,140,2012-11-29 10:53:00
4:53 AM,24.1,17.1,75,30.07,10.0,NE,4.6,-,N/A,,Scattered Clouds,50,2012-11-29 11:53:00
5:53 AM,23.0,17.1,78,30.10,10.0,ENE,6.9,-,N/A,,Overcast,70,2012-11-29 12:53:00
6:53 AM,21.9,17.1,82,30.14,10.0,NE,6.9,-,N/A,,Clear,50,2012-11-29 13:53:00
7:53 AM,21.9,17.1,82,30.14,10.0,NE,5.8,-,N/A,,Partly Cloudy,50,2012-11-29 14:53:00
8:53 AM,33.1,21.9,64,30.15,10.0,East,4.6,-,N/A,,Clear,80,2012-11-29 15:53:00
9:53 AM,37.9,24.1,57,30.13,10.0,Calm,Calm,-,N/A,,Partly Cloudy,0,2012-11-29 16:53:00
10:53 AM,42.1,21.9,45,30.11,10.0,Variable,3.5,-,N/A,,Clear,0,2012-11-29 17:53:00
11:53 AM,46.0,19.0,34,30.09,10.0,NW,15.0,-,N/A,,Clear,320,2012-11-29 18:53:00
12:53 PM,46.9,19.0,33,30.06,10.0,NW,11.5,19.6,N/A,,Clear,310,2012-11-29 19:53:00
1:53 PM,46.9,19.0,33,30.05,10.0,NNW,4.6,-,N/A,,Clear,330,2012-11-29 20:53:00
2:53 PM,46.9,21.0,36,30.04,10.0,West,9.2,-,N/A,,Clear,280,2012-11-29 21:53:00
3:53 PM,44.1,21.0,40,30.06,10.0,West,5.8,-,N/A,,Clear,280,2012-11-29 22:53:00
4:53 PM,39.0,21.0,49,30.10,10.0,WNW,9.2,-,N/A,,Clear,290,2012-11-29 23:53:00
5:53 PM,36.0,19.9,52,30.12,10.0,South,3.5,-,N/A,,Partly Cloudy,170,2012-11-30 00:53:00
6:53 PM,35.1,19.9,54,30.13,10.0,SE,4.6,-,N/A,,Clear,140,2012-11-30 01:53:00
7:53 PM,28.9,18.0,64,30.17,10.0,Calm,Calm,-,N/A,,Partly Cloudy,0,2012-11-30 02:53:00
8:53 PM,28.9,19.0,67,30.11,10.0,East,4.6,-,N/A,,Clear,100,2012-11-30 03:53:00
9:53 PM,28.0,19.9,72,30.08,10.0,ENE,3.5,-,N/A,,Overcast,60,2012-11-30 04:53:00
10:53 PM,28.9,21.0,72,30.05,10.0,Calm,Calm,-,N/A,,Mostly Cloudy,0,2012-11-30 05:53:00
11:53 PM,26.1,19.9,78,30.05,10.0,ENE,6.9,-,N/A,,Clear,60,2012-11-30 06:53:00